WA2GUG Weather Reports


time (UTC)temp
C
wind
direction
speed
KPH
gust
KPH
rain 1hr
cm
rain 24hr
cm
rain mn
cm
humidity
%
barometer
mb
20260902113200 -17 230 0.0 3.2 0.00 0.00 0.00 99 1013.1
20260902112700 -17 271 0.0 4.8 0.00 0.00 0.00 99 1013.0
20260902112200 -17 225 0.0 4.8 0.00 0.00 0.00 99 1013.0
20260902111701 -17 81 0.0 3.2 0.00 0.00 0.00 99 1013.1
20260902111200 -17 200 0.0 0.0 0.00 0.00 0.00 99 1013.2
20260902110700 -17 203 0.0 0.0 0.00 0.00 0.00 99 1014.0
20260902110200 -17 125 0.0 4.8 0.00 0.00 0.00 99 1014.0
20260902105700 -17 86 0.0 4.8 0.00 0.00 0.00 99 1014.0
20260902105200 -17 263 0.0 0.0 0.00 0.00 0.00 99 1014.0
20260902104700 -17 244 0.0 3.2 0.00 0.00 0.00 99 1014.0
20260902104200 -17 52 0.0 3.2 0.00 0.00 0.00 99 1013.2
20260902103700 -17 278 0.0 0.0 0.00 0.00 0.00 99 1014.0
20260902103200 -17 264 0.0 0.0 0.00 0.00 0.00 99 1013.1
20260902102700 -17 219 0.0 0.0 0.00 0.00 0.00 99 1013.0
20260902102200 -17 274 0.0 0.0 0.00 0.00 0.00 99 1013.0
20260902101701 -17 156 0.0 0.0 0.00 0.00 0.00 99 1013.0
20260902101200 -17 248 0.0 0.0 0.00 0.00 0.00 99 1013.0
20260902100700 -17 131 0.0 0.0 0.00 0.00 0.00 99 1013.0
20260902100200 -17 223 0.0 0.0 0.00 0.00 0.00 99 1013.0
20260902095700 -17 239 0.0 0.0 0.00 0.00 0.00 99 1013.0
20260902095200 -17 200 0.0 0.0 0.00 0.00 0.00 99 1013.0
20260902094700 -17 204 0.0 0.0 0.00 0.00 0.00 99 1013.0
20260902094200 -17 168 0.0 0.0 0.00 0.00 0.00 99 1013.0
20260902093700 -17 200 0.0 0.0 0.00 0.00 0.00 99 1013.0
20260902093200 -17 218 0.0 0.0 0.00 0.00 0.00 99 1013.0
20260902092700 -17 238 0.0 0.0 0.00 0.00 0.00 99 1013.0
20260902092200 -17 207 0.0 0.0 0.00 0.00 0.00 99 1013.0
20260902091700 -17 220 0.0 0.0 0.00 0.00 0.00 99 1013.0
20260902091200 -17 221 0.0 0.0 0.00 0.00 0.00 99 1013.0
20260902090700 -17 248 0.0 0.0 0.00 0.00 0.00 99 1013.0
20260902090200 -17 267 0.0 0.0 0.00 0.00 0.00 99 1012.2
20260902085700 -17 249 0.0 0.0 0.00 0.00 0.00 99 1013.0
20260902085200 -17 251 0.0 0.0 0.00 0.00 0.00 99 1012.2
20260902084700 -17 93 0.0 0.0 0.00 0.00 0.00 99 1013.0
20260902084200 -17 280 0.0 0.0 0.00 0.00 0.00 99 1013.0
20260902083700 -17 279 0.0 0.0 0.00 0.00 0.00 99 1013.0
20260902083200 -17 120 0.0 0.0 0.00 0.00 0.00 99 1012.2
20260902082700 -17 252 0.0 0.0 0.00 0.00 0.00 99 1013.0
20260902082200 -17 207 0.0 0.0 0.00 0.00 0.00 99 1012.2
20260902081700 -17 209 0.0 0.0 0.00 0.00 0.00 99 1013.0
20260902081200 -17 253 0.0 0.0 0.00 0.00 0.00 99 1012.2
20260902080700 -17 261 0.0 0.0 0.00 0.00 0.00 99 1013.0
20260902080200 -17 180 0.0 0.0 0.00 0.00 0.00 99 1012.2
20260902075700 -17 267 0.0 0.0 0.00 0.00 0.00 99 1012.2
20260902075200 -17 237 0.0 0.0 0.00 0.00 0.00 99 1012.2
20260902074700 -17 239 0.0 0.0 0.00 0.00 0.00 99 1013.0
20260902074200 -17 167 0.0 0.0 0.00 0.00 0.00 99 1012.2
20260902073700 -17 239 0.0 0.0 0.00 0.00 0.00 99 1012.2
20260902073200 -17 252 0.0 0.0 0.00 0.00 0.00 99 1012.2
20260902072700 -17 105 0.0 0.0 0.00 0.00 0.00 99 1013.0
20260902072200 -17 244 0.0 0.0 0.00 0.00 0.00 99 1012.2
20260902071700 -17 281 0.0 0.0 0.00 0.00 0.00 99 1013.0
20260902071200 -17 282 0.0 0.0 0.00 0.00 0.00 99 1013.0
20260902070700 -17 235 0.0 0.0 0.00 0.00 0.00 99 1013.0
20260902070200 -17 271 0.0 0.0 0.00 0.00 0.00 99 1012.2
20260902065200 -17 263 0.0 0.0 0.00 0.00 0.00 99 1012.2
20260902064700 -17 230 0.0 0.0 0.00 0.00 0.00 99 1013.0
20260902064200 -17 152 0.0 1.6 0.00 0.00 0.00 99 1012.2
20260902063700 -17 270 0.0 1.6 0.00 0.00 0.00 99 1013.0
20260902063200 -17 310 0.0 0.0 0.00 0.00 0.00 99 1012.2
20260902062700 -17 257 0.0 0.0 0.00 0.00 0.00 99 1013.0
20260902062200 -17 262 0.0 0.0 0.00 0.00 0.00 99 1012.2
20260902061700 -17 233 0.0 0.0 0.00 0.00 0.00 99 1013.0
20260902061200 -17 228 0.0 6.4 0.00 0.00 0.00 99 1012.2
20260902060700 -17 140 0.0 6.4 0.00 0.00 0.00 99 1013.0
20260902060200 -17 241 0.0 0.0 0.00 0.00 0.00 99 1012.2
20260902055700 -17 263 0.0 0.0 0.00 0.00 0.00 99 1012.2
20260902055200 -17 124 0.0 0.0 0.00 0.00 0.00 99 1012.2
20260902054700 -17 111 0.0 0.0 0.00 0.00 0.00 99 1013.0
20260902054200 -17 254 0.0 0.0 0.00 0.00 0.00 99 1012.2
20260902053700 -17 145 0.0 0.0 0.00 0.00 0.00 99 1013.0
20260902053200 -17 127 0.0 4.8 0.00 0.00 0.00 99 1012.2
20260902052700 -17 157 0.0 4.8 0.00 0.00 0.00 99 1013.0
20260902052200 -17 131 0.0 1.6 0.00 0.00 0.00 99 1012.2
20260902051700 -17 206 0.0 1.6 0.00 0.00 0.00 99 1013.0
20260902051200 -17 45 0.0 3.2 0.00 0.00 0.00 99 1012.2
20260902050700 -17 170 0.0 3.2 0.00 0.00 0.00 99 1013.0
20260902050200 -17 152 0.0 0.0 0.00 0.00 0.00 99 1012.2
20260902045700 -17 166 0.0 3.2 0.00 0.00 0.00 99 1012.2
20260902045200 -17 81 0.0 3.2 0.00 0.00 0.00 99 1012.1
20260902044700 -17 144 0.0 3.2 0.00 0.00 0.00 99 1012.1
20260902044200 -17 117 0.0 3.2 0.00 0.00 0.00 99 1012.1
20260902043700 -17 179 0.0 3.2 0.00 0.00 0.00 99 1012.1
20260902043200 -17 172 0.0 1.6 0.00 0.00 0.00 99 1012.1
20260902042700 -17 262 0.0 1.6 0.00 0.00 0.00 99 1012.0
20260902042200 -17 223 0.0 1.6 0.00 0.00 0.00 99 1012.0
20260902041700 -17 238 0.0 0.0 0.00 0.00 0.00 99 1012.0
20260902041200 -17 268 0.0 0.0 0.00 0.00 0.00 99 1012.0
20260902040700 -17 206 0.0 0.0 0.00 0.00 0.00 99 1012.0
20260902040200 -17 198 0.0 0.0 0.00 0.00 0.00 99 1012.0
20260902035700 -17 235 0.0 0.0 0.00 0.00 0.00 99 1012.0
20260902035200 -17 267 0.0 0.0 0.00 0.00 0.00 99 1012.0
20260902034700 -17 192 0.0 0.0 0.00 0.00 0.00 99 1012.0
20260902034200 -17 178 0.0 0.0 0.00 0.00 0.00 99 1012.0
20260902033700 -17 194 0.0 0.0 0.00 0.00 0.00 99 1012.0
20260902033200 -17 229 0.0 0.0 0.00 0.00 0.00 99 1012.0
20260902032700 -17 260 0.0 0.0 0.00 0.00 0.00 99 1012.0
20260902032200 -17 175 0.0 0.0 0.00 0.00 0.00 99 1012.0
20260902031700 -17 221 0.0 0.0 0.00 0.00 0.00 99 1012.0
20260902031200 -17 205 0.0 0.0 0.00 0.00 0.00 99 1012.0
20260902030700 -17 270 0.0 0.0 0.00 0.00 0.00 99 1012.0
20260902030200 -17 273 0.0 0.0 0.00 0.00 0.00 99 1012.0
20260902025700 -17 285 0.0 0.0 0.00 0.00 0.00 99 1012.0
20260902025200 -17 137 0.0 0.0 0.00 0.00 0.00 99 1012.0
20260902024700 -17 135 0.0 0.0 0.00 0.00 0.00 99 1012.0
20260902024200 -17 135 0.0 0.0 0.00 0.00 0.00 99 1012.0
20260902023700 -17 127 0.0 0.0 0.00 0.00 0.00 99 1012.0
20260902023200 -17 270 0.0 0.0 0.00 0.00 0.00 99 1012.0
20260902022700 -17 273 0.0 0.0 0.00 0.00 0.00 99 1012.0
20260902022200 -17 267 0.0 0.0 0.00 0.00 0.00 99 1012.0
20260902021700 -17 293 0.0 0.0 0.00 0.00 0.00 99 1012.0
20260902021200 -17 285 0.0 0.0 0.00 0.00 0.00 99 1012.0
20260902020700 -17 205 0.0 0.0 0.00 0.00 0.00 99 1012.0
20260902020200 -17 250 0.0 0.0 0.00 0.00 0.00 99 1012.0
20260902015700 -17 270 0.0 0.0 0.00 0.00 0.00 99 1012.0
20260902015200 -17 232 0.0 0.0 0.00 0.00 0.00 99 1012.0
20260902014700 -17 181 0.0 0.0 0.00 0.00 0.00 99 1012.0
20260902014200 -17 178 0.0 0.0 0.00 0.00 0.00 99 1012.0
20260902013700 -17 195 0.0 0.0 0.00 0.00 0.00 99 1012.0
20260902013200 -17 270 0.0 0.0 0.00 0.00 0.00 99 1012.0
20260902012700 -17 203 0.0 0.0 0.00 0.00 0.00 99 1012.0
20260902012200 -17 137 0.0 0.0 0.00 0.00 0.00 99 1012.0
20260902011700 -17 178 0.0 0.0 0.00 0.00 0.00 99 1011.2
20260902011200 -17 263 0.0 0.0 0.00 0.00 0.00 99 1012.0
20260902010700 -17 295 0.0 0.0 0.00 0.00 0.00 99 1011.2
20260902010200 -17 286 0.0 0.0 0.00 0.00 0.00 99 1012.0
20260902005700 -17 253 0.0 0.0 0.00 0.00 0.00 99 1011.2
20260902005200 -17 266 0.0 0.0 0.00 0.00 0.00 99 1012.0
20260902004700 -17 258 0.0 0.0 0.00 0.00 0.00 99 1011.2
20260902004200 -17 185 0.0 0.0 0.00 0.00 0.00 99 1011.2
20260902003700 -17 260 0.0 0.0 0.00 0.00 0.00 99 1011.1
20260902003200 -17 234 0.0 1.6 0.00 0.00 0.00 99 1011.0
20260902002700 -17 231 0.0 1.6 0.00 0.00 0.00 99 1011.0
20260902002200 -17 223 0.0 0.0 0.00 0.00 0.00 99 1011.0
20260902001700 -17 252 0.0 0.0 0.00 0.00 0.00 99 1011.0
20260902001200 -17 255 0.0 0.0 0.00 0.00 0.00 99 1011.0
20260902000700 -17 274 0.0 0.0 0.00 0.00 0.00 99 1011.0
20260902000200 -17 166 0.0 0.0 0.00 0.00 0.00 99 1011.0
20260901235700 -17 219 0.0 0.0 0.00 0.00 0.00 99 1010.2
20260901235200 -17 222 0.0 0.0 0.00 0.00 0.00 99 1011.0
20260901234700 -17 247 0.0 0.0 0.00 0.00 0.00 99 1011.0
20260901234200 -17 235 0.0 0.0 0.00 0.00 0.00 99 1011.0
20260901233700 -17 225 0.0 0.0 0.00 0.00 0.00 99 1011.0
20260901233200 -17 225 0.0 0.0 0.00 0.00 0.00 99 1011.0
20260901232700 -17 244 0.0 0.0 0.00 0.00 0.00 99 1011.0
20260901232200 -17 240 0.0 0.0 0.00 0.00 0.00 99 1011.0
20260901231700 -17 225 0.0 0.0 0.00 0.00 0.00 99 1010.2
20260901231200 -17 225 0.0 0.0 0.00 0.00 0.00 99 1011.0
20260901230700 -17 225 0.0 0.0 0.00 0.00 0.00 99 1011.0
20260901230200 -17 225 0.0 0.0 0.00 0.00 0.00 99 1011.0
20260901225700 -17 225 0.0 0.0 0.00 0.00 0.00 99 1011.0
20260901225200 -17 225 0.0 0.0 0.00 0.00 0.00 99 1011.0
20260901224700 -17 225 0.0 0.0 0.00 0.00 0.00 99 1011.0
20260901224200 -17 225 0.0 0.0 0.00 0.00 0.00 99 1011.0
20260901223700 -17 225 0.0 0.0 0.00 0.00 0.00 99 1011.0
20260901223200 -17 263 0.0 0.0 0.00 0.00 0.00 99 1011.0
20260901222700 -17 296 0.0 0.0 0.00 0.00 0.00 99 1011.0
20260901222200 -17 298 0.0 0.0 0.00 0.00 0.00 99 1011.0
20260901221700 -17 292 0.0 0.0 0.00 0.00 0.00 99 1011.0
20260901221200 -17 292 0.0 0.0 0.00 0.00 0.00 99 1011.0
20260901220700 -17 292 0.0 0.0 0.00 0.00 0.00 99 1011.0
20260901220200 -17 291 0.0 0.0 0.00 0.00 0.00 99 1011.0
20260901215700 -17 289 0.0 0.0 0.00 0.00 0.00 99 1011.0
20260901215200 -17 297 0.0 0.0 0.00 0.00 0.00 99 1011.0
20260901214700 -17 314 0.0 0.0 0.00 0.00 0.00 99 1011.0
20260901214159 -17 274 0.0 0.0 0.00 0.00 0.00 99 1011.0
20260901213700 -17 270 0.0 0.0 0.00 0.00 0.00 99 1011.0
20260901213200 -17 288 0.0 0.0 0.00 0.00 0.00 99 1011.0
20260901212700 -17 292 0.0 0.0 0.00 0.00 0.00 99 1011.0
20260901212159 -17 256 0.0 0.0 0.00 0.00 0.00 99 1011.0
20260901211700 -17 247 0.0 0.0 0.00 0.00 0.00 99 1011.0
20260901211200 -17 247 0.0 0.0 0.00 0.00 0.00 99 1011.0
20260901210659 -17 141 0.0 0.0 0.00 0.00 0.00 99 1011.0
20260901210159 -17 135 0.0 0.0 0.00 0.00 0.00 99 1011.0
20260901205659 -17 135 0.0 0.0 0.00 0.00 0.00 99 1010.2
20260901205159 -17 114 0.0 0.0 0.00 0.00 0.00 99 1011.0
20260901204659 -17 112 0.0 0.0 0.00 0.00 0.00 99 1010.2
20260901204159 -17 315 0.0 0.0 0.00 0.00 0.00 99 1010.2
20260901203659 -17 315 0.0 0.0 0.00 0.00 0.00 99 1010.2
20260901203159 -17 315 0.0 0.0 0.00 0.00 0.00 99 1011.0
20260901202659 -17 315 0.0 0.0 0.00 0.00 0.00 99 1010.2
20260901202159 -17 325 0.0 0.0 0.00 0.00 0.00 99 1011.0
20260901201700 -17 337 0.0 0.0 0.00 0.00 0.00 99 1010.2
20260901201159 -17 337 0.0 0.0 0.00 0.00 0.00 99 1011.0
20260901200659 -17 337 0.0 0.0 0.00 0.00 0.00 99 1010.2
20260901200159 -17 354 0.0 0.0 0.00 0.00 0.00 99 1010.2
20260901195659 -17 59 0.0 0.0 0.00 0.00 0.00 99 1010.2
20260901195159 -17 84 0.0 0.0 0.00 0.00 0.00 99 1011.0
20260901194659 -17 7 0.0 0.0 0.00 0.00 0.00 99 1010.2
20260901194159 -17 34 0.0 0.0 0.00 0.00 0.00 99 1010.2
20260901193659 -17 339 0.0 0.0 0.00 0.00 0.00 99 1011.0
20260901193159 -17 249 0.0 0.0 0.00 0.00 0.00 99 1010.2
20260901192659 -17 205 0.0 0.0 0.00 0.00 0.00 99 1010.1
20260901192159 -17 142 0.0 0.0 0.00 0.00 0.00 99 1010.1
20260901191659 -17 24 0.0 0.0 0.00 0.00 0.00 99 1010.1
20260901191159 -17 136 0.0 0.0 0.00 0.00 0.00 99 1010.0
20260901190659 -17 148 0.0 0.0 0.00 0.00 0.00 99 1010.0
20260901190159 -17 106 0.0 0.0 0.00 0.00 0.00 99 1010.0
20260901185659 -17 172 0.0 0.0 0.00 0.00 0.00 99 1010.0
20260901185159 -17 180 0.0 0.0 0.00 0.00 0.00 99 1010.0
20260901184659 -17 150 0.0 0.0 0.00 0.00 0.00 99 1010.0
20260901184159 -17 86 0.0 0.0 0.00 0.00 0.00 99 1010.0
20260901183659 -17 114 0.0 0.0 0.00 0.00 0.00 99 1010.0
20260901183159 -17 145 0.0 0.0 0.00 0.00 0.00 99 1010.0
20260901182659 -17 112 0.0 0.0 0.00 0.00 0.00 99 1010.0
20260901182159 -17 120 0.0 0.0 0.00 0.00 0.00 99 1010.0
20260901181659 -17 115 0.0 0.0 0.00 0.00 0.00 99 1010.0
20260901181159 -17 165 0.0 0.0 0.00 0.00 0.00 99 1010.0
20260901180659 -17 144 0.0 3.2 0.00 0.00 0.00 99 1010.0
20260901180159 -17 167 0.0 3.2 0.00 0.00 0.00 99 1010.0
20260901175659 -17 173 0.0 0.0 0.00 0.00 0.00 99 1010.0
20260901175159 -17 165 0.0 0.0 0.00 0.00 0.00 99 1010.0
20260901174659 -17 147 0.0 0.0 0.00 0.00 0.00 99 1010.0
20260901174159 -17 177 0.0 0.0 0.00 0.00 0.00 99 1010.0
20260901173659 -17 177 0.0 0.0 0.00 0.00 0.00 99 1010.0
20260901173159 -17 135 0.0 3.2 0.00 0.00 0.00 99 1010.0
20260901172659 -17 135 0.0 4.8 0.00 0.00 0.00 99 1010.0
20260901172159 -17 146 1.6 4.8 0.00 0.00 0.00 99 1010.0
20260901171659 -17 125 0.0 4.8 0.00 0.00 0.00 99 1010.0
20260901171159 -17 202 0.0 4.8 0.00 0.00 0.00 99 1010.0
20260901170659 -17 184 0.0 4.8 0.00 0.00 0.00 99 1010.0
20260901170159 -17 153 1.6 4.8 0.00 0.00 0.00 99 1010.0
20260901165659 -17 163 0.0 6.4 0.00 0.00 0.00 99 1010.0
20260901165159 -17 139 1.6 6.4 0.00 0.00 0.00 99 1010.0
20260901164659 -17 165 0.0 3.2 0.00 0.00 0.00 99 1010.0
20260901164159 -17 162 0.0 0.0 0.00 0.00 0.00 99 1010.0
20260901163659 -17 138 0.0 0.0 0.00 0.00 0.00 99 1010.0
20260901163159 -17 272 0.0 0.0 0.00 0.00 0.00 99 1010.0
20260901162659 -17 276 0.0 0.0 0.00 0.00 0.00 99 1010.0
20260901162159 -17 139 0.0 0.0 0.00 0.00 0.00 99 1010.0
20260901161659 -17 134 0.0 0.0 0.00 0.00 0.00 99 1010.0
20260901161159 -17 135 0.0 3.2 0.00 0.00 0.00 99 1010.0
20260901160659 -17 140 0.0 3.2 0.00 0.00 0.00 99 1010.0
20260901160159 -17 118 0.0 0.0 0.00 0.00 0.00 99 1010.0
20260901155659 -17 132 0.0 0.0 0.00 0.00 0.00 99 1010.0
20260901155159 -17 181 0.0 0.0 0.00 0.00 0.00 99 1010.0
20260901154659 -17 154 0.0 0.0 0.00 0.00 0.00 99 1010.0
20260901154159 -17 105 0.0 0.0 0.00 0.00 0.00 99 1010.1
20260901153659 -17 123 0.0 0.0 0.00 0.00 0.00 99 1010.0
20260901153159 -17 239 0.0 0.0 0.00 0.00 0.00 99 1010.0
20260901152659 -17 281 0.0 0.0 0.00 0.00 0.00 99 1010.0
20260901152159 -17 182 0.0 0.0 0.00 0.00 0.00 99 1010.0
20260901151659 -17 142 0.0 0.0 0.00 0.00 0.00 99 1010.2
20260901151159 -17 330 0.0 0.0 0.00 0.00 0.00 99 1010.0
20260901150659 -17 301 0.0 0.0 0.00 0.00 0.00 99 1010.1
20260901150159 -17 192 0.0 0.0 0.00 0.00 0.00 99 1010.1
20260901145659 -17 127 0.0 0.0 0.00 0.00 0.00 99 1010.0
20260901145159 -17 317 0.0 0.0 0.00 0.00 0.00 99 1010.0
20260901144659 -17 324 0.0 0.0 0.00 0.00 0.00 99 1010.1
20260901144159 -17 279 0.0 0.0 0.00 0.00 0.00 99 1010.1
20260901143659 -17 269 0.0 0.0 0.00 0.00 0.00 99 1010.2
20260901143159 -17 229 0.0 0.0 0.00 0.00 0.00 99 1010.2
20260901142659 -17 141 0.0 0.0 0.00 0.00 0.00 99 1010.2
20260901142159 -17 252 0.0 0.0 0.00 0.00 0.00 99 1010.2
20260901141659 -17 261 0.0 0.0 0.00 0.00 0.00 99 1010.1
20260901141159 -17 204 0.0 0.0 0.00 0.00 0.00 99 1010.0
20260901140659 -17 287 0.0 0.0 0.00 0.00 0.00 99 1010.0
20260901140159 -17 142 0.0 0.0 0.00 0.00 0.00 99 1010.2
20260901135659 -17 177 0.0 0.0 0.00 0.00 0.00 99 1011.0
20260901135159 -17 133 0.0 0.0 0.00 0.00 0.00 99 1011.0
20260901134659 -17 224 0.0 0.0 0.00 0.00 0.00 99 1010.2
20260901134159 -17 237 0.0 0.0 0.00 0.00 0.00 99 1010.2
20260901133659 -17 345 0.0 1.6 0.00 0.00 0.00 99 1010.2
20260901133159 -17 284 0.0 1.6 0.00 0.00 0.00 99 1010.2
20260901132659 -17 338 0.0 0.0 0.00 0.00 0.00 99 1011.0
20260901132159 -17 288 0.0 0.0 0.00 0.00 0.00 99 1010.2
20260901131659 -17 233 0.0 0.0 0.00 0.00 0.00 99 1010.2
20260901131159 -17 228 0.0 0.0 0.00 0.00 0.00 99 1010.2
20260901130659 -17 290 0.0 0.0 0.00 0.00 0.00 99 1011.0
20260901130159 -17 20 0.0 0.0 0.00 0.00 0.00 99 1011.0
20260901125659 -17 50 0.0 0.0 0.00 0.00 0.00 99 1011.0
20260901125159 -17 312 0.0 0.0 0.00 0.00 0.00 99 1011.0
20260901124659 -17 319 0.0 0.0 0.00 0.00 0.00 99 1011.0
20260901124159 -17 31 0.0 0.0 0.00 0.00 0.00 99 1011.0
20260901123659 -17 254 0.0 0.0 0.00 0.00 0.00 99 1011.0
20260901123159 -17 79 0.0 0.0 0.00 0.00 0.00 99 1011.0
20260901122659 -17 96 0.0 0.0 0.00 0.00 0.00 99 1011.0
20260901122159 -17 13 0.0 0.0 0.00 0.00 0.00 99 1010.2
20260901121659 -17 155 0.0 0.0 0.00 0.00 0.00 99 1011.0
20260901121159 -17 312 0.0 0.0 0.00 0.00 0.00 99 1011.0
20260901120659 -17 135 0.0 0.0 0.00 0.00 0.00 99 1011.0
20260901120159 -17 127 0.0 0.0 0.00 0.00 0.00 99 1011.0
20260901115659 -17 59 0.0 0.0 0.00 0.00 0.00 99 1011.0
20260901115159 -17 131 0.0 0.0 0.00 0.00 0.00 99 1010.2
20260901114659 -17 133 0.0 0.0 0.00 0.00 0.00 99 1011.0
20260901114159 -17 315 0.0 0.0 0.00 0.00 0.00 99 1011.0
20260901113659 -17 2 0.0 0.0 0.00 0.00 0.00 99 1011.0